Weather History for Indianapolis, IN

Change the Weather History Date:

Saturday, November 2, 2013

  Actual Average Record
Temperature  
Mean Temperature 47 °F 49 °F  
Max Temperature 53 °F 59 °F 78 °F (1961)
Min Temperature 40 °F 40 °F 16 °F (1951)
Degree Days  
Heating Degree Days 18 16  
Month to date heating degree days 31 31  
Since 1 July heating degree days 411 432  
Cooling Degree Days 0 0  
Month to date cooling degree days 0 0  
Year to date cooling degree days 1160 1065  
Moisture  
Dew Point 38 °F    
Average Humidity 73    
Maximum Humidity 93    
Minimum Humidity 52    
Precipitation  
Precipitation T in 0.11 in 3.86 in (1936)
Month to date precipitation T 0.23  
Year to date precipitation 38.25 35.80  
Snow  
Snow 0.00 in 0.00 in 7.80 in (1966)
Month to date snowfall 0.0 0.0  
Since 1 July snowfall T 0.4  
Since 1 September snowfall T 0.4  
Snow Depth 0.00 in    
Sea Level Pressure  
Sea Level Pressure 29.90 in    
Wind  
Wind Speed 11 mph (WNW)    
Max Wind Speed 22 mph    
Max Gust Speed 28 mph    
Visibility 10 miles    
Events Rain    
T = Trace of Precipitation, MM = Missing Value Source: NWS Daily Summary

Daily Weather History Graph

Daily Weather History Graph

Search for Another Location

Airport:

Trip Planner

Search our weather history database for the weather conditions in past years. The results will help you decide how hot, cold, wet, or windy it might be!

Date:

Astronomy

Nov. 02, 2013 Rise Set
Actual Time 8:15 AM EDT 6:41 PM EDT
Civil Twilight 7:47 AM EDT 7:09 PM EDT
Nautical Twilight 7:15 AM EDT 7:41 PM EDT
Astronomical Twilight 6:43 AM EDT 8:13 PM EDT
Moon 7:11 AM EDT (11/2) 6:12 PM EDT (11/2)
Length of Visible Light 11h 22m
Length of Day
10h 26m
Waning Crescent, 1% of the Moon is Illuminated
Nov 2
Waning Crescent
Nov 3
New
Nov 10
First Quarter
Nov 17
Full
Nov 25
Last Quarter

Hourly Weather History & Observations

Time (EDT) Temp. Windchill Dew Point Humidity Pressure Visibility Wind Dir Wind Speed Gust Speed Precip Events Conditions
12:00 AM 48.2 °F - 39.2 °F 71% 29.77 in 10.0 mi West 11.5 mph - N/A   Overcast
12:32 AM 48.2 °F - 39.2 °F 71% 29.77 in 10.0 mi West 13.8 mph - N/A   Overcast
12:54 AM 48.0 °F - 41.0 °F 77% 29.77 in 10.0 mi NW 11.5 mph - N/A   Overcast
1:00 AM 48.2 °F - 41.0 °F 76% 29.76 in 10.0 mi WNW 10.4 mph - N/A   Overcast
1:54 AM 48.0 °F - 41.0 °F 77% 29.77 in 10.0 mi West 13.8 mph - N/A Rain Light Rain
2:54 AM 45.0 °F 40.1 °F 39.0 °F 80% 29.78 in 10.0 mi WNW 9.2 mph - N/A   Mostly Cloudy
3:08 AM 44.6 °F 40.7 °F 39.2 °F 81% 29.78 in 10.0 mi West 6.9 mph - N/A   Scattered Clouds
3:54 AM 42.1 °F 38.4 °F 37.9 °F 85% 29.78 in 10.0 mi WSW 5.8 mph - N/A   Scattered Clouds
4:54 AM 42.1 °F 37.1 °F 39.9 °F 92% 29.79 in 10.0 mi WSW 8.1 mph - N/A   Mostly Cloudy
5:54 AM 41.0 °F 37.1 °F 39.0 °F 93% 29.79 in 10.0 mi WSW 5.8 mph - N/A   Mostly Cloudy
6:54 AM 42.1 °F 37.1 °F 39.9 °F 92% 29.81 in 10.0 mi West 8.1 mph - N/A   Mostly Cloudy
7:54 AM 41.0 °F 37.1 °F 39.0 °F 93% 29.83 in 10.0 mi West 5.8 mph - N/A   Overcast
8:54 AM 42.1 °F 38.4 °F 39.9 °F 92% 29.85 in 10.0 mi WSW 5.8 mph - N/A   Mostly Cloudy
9:54 AM 45.0 °F 40.6 °F 41.0 °F 86% 29.87 in 10.0 mi WNW 8.1 mph - N/A   Mostly Cloudy
10:54 AM 48.0 °F - 39.9 °F 74% 29.88 in 10.0 mi WNW 9.2 mph - N/A   Mostly Cloudy
11:54 AM 50.0 °F - 37.9 °F 63% 29.90 in 10.0 mi NW 15.0 mph - N/A   Scattered Clouds
12:54 PM 52.0 °F - 35.1 °F 53% 29.92 in 10.0 mi WNW 18.4 mph 24.2 mph N/A   Scattered Clouds
1:54 PM 51.1 °F - 35.1 °F 54% 29.93 in 10.0 mi WNW 17.3 mph - N/A   Mostly Cloudy
2:54 PM 50.0 °F - 34.0 °F 54% 29.93 in 10.0 mi NW 17.3 mph 21.9 mph N/A   Mostly Cloudy
3:54 PM 50.0 °F - 33.1 °F 52% 29.95 in 10.0 mi WNW 17.3 mph 24.2 mph N/A   Mostly Cloudy
4:54 PM 48.9 °F - 34.0 °F 56% 29.98 in 10.0 mi NW 11.5 mph - N/A   Overcast
5:54 PM 48.0 °F - 34.0 °F 58% 30.00 in 10.0 mi NW 12.7 mph - N/A   Overcast
6:54 PM 46.9 °F - 36.0 °F 66% 30.02 in 10.0 mi WNW 11.5 mph - N/A   Overcast
7:54 PM 45.0 °F 39.3 °F 36.0 °F 71% 30.06 in 10.0 mi NW 11.5 mph - N/A   Mostly Cloudy
8:54 PM 44.1 °F 37.4 °F 37.0 °F 76% 30.08 in 10.0 mi NW 13.8 mph - N/A   Overcast
9:54 PM 44.1 °F 39.0 °F 36.0 °F 73% 30.10 in 10.0 mi NW 9.2 mph - N/A   Overcast
10:54 PM 44.1 °F 40.8 °F 37.0 °F 76% 30.12 in 10.0 mi NW 5.8 mph - N/A   Overcast
11:54 PM 43.0 °F 39.5 °F 37.0 °F 80% 30.14 in 10.0 mi NW 5.8 mph - N/A   Overcast